Location: *
(51.1248°S, 108.4023°W)
Time: 03:49:29
(UTC+00:00)

Cosmos 2278 Rocket - Pass Details

Date: 30 October 2021
Orbit: 841 x 845 km, 71.0° (Epoch: 01 December)

Event Time Altitude Azimuth Distance (km) Brightness Sun altitude
Rises 10:15:32 0° 225° (SW) 3,436 5.3 -12.0°
Maximum altitude 10:21:41 10° 175° (S) 2,502 5.3 -11.3°
Drops below altitude 10° 10:22:00 10° 172° (S) 2,505 5.4 -11.2°
Sets 10:27:49 0° 126° (SE) 3,435 7.7 -10.5°
